STARLINK-35042

Last updated on Tue Sep 16 2025 00:02:08 GMT+0000 (Coordinated Universal Time)

1 65481U 25195Z 25258.02318957 -.02022780 00000+0 -13910-1 0 9990 2 65481 53.1558 0.1702 0005702 265.4071 94.6299 15.77321098 2994
UTC large
Height (km)
Speed (km/s)
/
Latitude / Longitude
Inclination (degrees)
Orbital Period (minutes)
Azimuth
Elevation
Range (km)
Doppler Factor

Next 0 passes for location: London (51.5072 / 0.1276)

Sorry there are no passes over London.